FW9204 Weather Reports


time (UTC)temp
C
wind
direction
speed
KPH
gust
KPH
rain 1hr
cm
rain 24hr
cm
rain mn
cm
humidity
%
barometer
mb
20260906040059 21 0 0.0 0.0 0.00 0.30 0.30 97 1018.4
20260906035542 21 0 0.0 0.0 0.00 0.30 0.30 96 1018.4
20260906035041 21 0 0.0 0.0 0.00 0.30 0.30 96 1018.4
20260906034605 21 0 0.0 0.0 0.00 0.30 0.30 96 1018.5
20260906034042 21 0 0.0 0.0 0.00 0.30 0.30 96 1018.5
20260906033542 21 0 0.0 0.0 0.00 0.30 0.30 96 1018.5
20260906033101 21 0 0.0 0.0 0.00 0.30 0.30 96 1018.3
20260906032541 21 0 0.0 0.0 0.00 0.30 0.30 96 1018.3
20260906032042 21 0 0.0 0.0 0.00 0.30 0.30 96 1018.1
20260906031556 21 0 0.0 0.0 0.00 0.30 0.30 96 1018.0
20260906031042 21 0 0.0 0.0 0.00 0.30 0.30 96 1018.1
20260906030543 22 0 0.0 0.0 0.00 0.30 0.30 95 1018.3
20260906030057 22 0 0.0 0.0 0.00 0.30 0.30 95 1018.5
20260906025542 22 0 0.0 0.0 0.00 0.30 0.30 95 1018.4
20260906025042 22 0 0.0 0.0 0.00 0.30 0.30 95 1018.5
20260906024558 22 0 0.0 0.0 0.00 0.30 0.30 95 1018.3
20260906024042 22 0 0.0 0.0 0.00 0.30 0.30 96 1018.2
20260906023542 22 0 0.0 0.0 0.00 0.30 0.30 95 1018.0
20260906023106 22 0 0.0 0.0 0.00 0.30 0.30 95 1017.9
20260906022543 22 0 0.0 0.0 0.00 0.30 0.30 95 1017.8
20260906022042 22 0 0.0 0.0 0.00 0.30 0.30 95 1017.7
20260906021555 22 0 0.0 0.0 0.00 0.30 0.30 95 1017.7
20260906021042 22 0 0.0 0.0 0.00 0.30 0.30 95 1017.4
20260906020544 22 0 0.0 0.0 0.00 0.30 0.30 95 1017.4
20260906015541 22 0 0.0 0.0 0.00 0.30 0.30 95 1017.3
20260906015042 22 0 0.0 0.0 0.00 0.30 0.30 95 1017.4
20260906014606 22 0 0.0 0.0 0.00 0.30 0.30 94 1017.2
20260906014041 22 0 0.0 0.0 0.00 0.30 0.30 94 1017.3
20260906013541 22 0 0.0 0.0 0.00 0.30 0.30 94 1017.2
20260906013100 22 0 0.0 0.0 0.00 0.30 0.30 94 1017.1
20260906012541 22 0 0.0 0.0 0.00 0.30 0.30 94 1017.1
20260906012042 22 0 0.0 0.0 0.00 0.30 0.30 94 1017.1
20260906011606 22 0 0.0 0.0 0.00 0.30 0.30 94 1017.0
20260906011042 22 0 0.0 0.0 0.00 0.30 0.30 94 1017.1
20260906010542 22 0 0.0 0.0 0.00 0.30 0.30 93 1017.3
20260906010108 22 0 0.0 0.0 0.00 0.30 0.30 93 1017.3
20260906005542 22 0 0.0 0.0 0.00 0.30 0.30 93 1017.3
20260906005041 23 0 0.0 0.0 0.00 0.30 0.30 93 1017.4
20260906004556 23 0 0.0 0.0 0.00 0.30 0.30 92 1017.3
20260906004042 23 0 0.0 0.0 0.00 0.30 0.30 92 1017.4
20260906003543 23 0 0.0 0.0 0.00 0.30 0.30 92 1017.3
20260906003104 23 0 0.0 0.0 0.00 0.30 0.30 92 1017.4
20260906002542 23 0 0.0 0.0 0.00 0.30 0.30 92 1017.4
20260906002042 23 0 0.0 0.0 0.00 0.30 0.30 91 1017.4
20260906001555 23 0 0.0 0.0 0.00 0.30 0.30 90 1017.3
20260906001041 23 0 0.0 1.6 0.00 0.30 0.30 90 1017.4
20260906000542 23 0 0.0 1.6 0.00 0.30 0.30 89 1017.4
20260906000101 23 0 0.0 1.6 0.00 0.30 0.30 88 1017.4
20260905235542 23 136 0.0 1.6 0.00 0.30 0.30 88 1017.4
20260905235042 24 0 0.0 3.2 0.00 0.30 0.30 87 1017.4
20260905234600 24 0 0.0 3.2 0.00 0.30 0.30 86 1017.4
20260905234042 24 0 0.0 3.2 0.00 0.30 0.30 86 1017.3
20260905233541 24 0 0.0 3.2 0.00 0.30 0.30 85 1017.1
20260905233111 25 0 0.0 3.2 0.00 0.30 0.30 85 1017.1
20260905232542 25 0 0.0 3.2 0.00 0.30 0.30 85 1017.0
20260905232043 25 0 0.0 3.2 0.00 0.30 0.30 85 1016.8
20260905231555 26 0 0.0 4.8 0.00 0.30 0.30 84 1017.0
20260905231044 26 0 0.0 4.8 0.00 0.30 0.30 83 1016.9
20260905230542 26 211 0.0 6.4 0.00 0.30 0.30 80 1017.1
20260905230100 26 319 0.0 6.4 0.00 0.30 0.30 81 1017.3
20260905225542 26 9 1.6 6.4 0.00 0.30 0.30 81 1017.2
20260905225042 26 173 1.6 4.8 0.00 0.30 0.30 85 1017.5
20260905224607 26 318 0.0 3.2 0.00 0.30 0.30 88 1017.5
20260905224041 26 318 0.0 3.2 0.00 0.30 0.30 88 1017.5
20260905223542 25 0 0.0 3.2 0.00 0.30 0.30 89 1017.4
20260905223101 25 0 0.0 3.2 0.00 0.30 0.30 90 1017.2
20260905222543 25 0 0.0 3.2 0.00 0.30 0.30 90 1017.2
20260905222042 25 0 1.6 3.2 0.00 0.30 0.30 89 1017.3
20260905221602 25 107 0.0 3.2 0.00 0.30 0.30 88 1017.1
20260905221042 25 0 0.0 3.2 0.00 0.30 0.30 88 1017.1
20260905220541 25 0 0.0 1.6 0.00 0.30 0.30 88 1017.2
20260905220100 25 62 0.0 8.0 0.00 0.30 0.30 89 1017.4
20260905215542 25 62 0.0 9.7 0.00 0.30 0.30 90 1017.5
20260905215042 25 0 1.6 9.7 0.00 0.30 0.30 90 1017.5
20260905214554 25 0 0.0 3.2 0.00 0.30 0.30 90 1017.4
20260905214042 25 113 0.0 3.2 0.00 0.30 0.30 90 1017.4
20260905213543 25 93 0.0 3.2 0.00 0.30 0.30 90 1017.5
20260905213110 25 0 0.0 3.2 0.00 0.30 0.30 90 1017.7
20260905212544 25 0 0.0 3.2 0.00 0.30 0.30 90 1017.7
20260905212042 25 92 0.0 1.6 0.00 0.30 0.30 90 1017.6
20260905211611 25 92 0.0 3.2 0.00 0.30 0.30 92 1017.5
20260905211045 25 0 0.0 4.8 0.00 0.30 0.30 92 1017.6
20260905210542 25 0 0.0 4.8 0.00 0.30 0.30 92 1017.6
20260905210114 25 135 1.6 4.8 0.00 0.30 0.30 93 1017.7
20260905205542 25 103 0.0 4.8 0.00 0.30 0.30 94 1017.8
20260905205043 25 71 0.0 3.2 0.00 0.30 0.30 94 1017.9
20260905204603 25 140 0.0 3.2 0.00 0.30 0.30 94 1018.0
20260905204042 25 254 0.0 8.0 0.00 0.30 0.30 94 1017.9
20260905203542 25 0 1.6 9.7 0.00 0.30 0.30 95 1017.9
20260905203102 24 136 3.2 9.7 0.00 0.30 0.30 96 1017.9
20260905202545 24 102 1.6 6.4 0.00 0.30 0.30 96 1018.0
20260905202042 24 0 0.0 3.2 0.00 0.30 0.30 95 1018.1
20260905201556 24 0 0.0 1.6 0.00 0.30 0.30 95 1018.1
20260905201040 24 0 0.0 3.2 0.00 0.30 0.30 95 1018.0
20260905200545 24 0 0.0 6.4 0.00 0.30 0.30 95 1018.1
20260905195543 24 144 0.0 4.8 0.00 0.30 0.30 96 1018.2
20260905195042 24 0 0.0 3.2 0.00 0.30 0.30 95 1018.3
20260905194601 24 130 0.0 1.6 0.00 0.30 0.30 95 1018.3
20260905194042 24 0 0.0 1.6 0.00 0.30 0.30 94 1018.4
20260905193543 24 0 0.0 1.6 0.00 0.30 0.30 95 1018.3
20260905193057 24 0 0.0 1.6 0.00 0.30 0.30 94 1018.3
20260905192542 23 0 0.0 1.6 0.18 0.30 0.30 94 1018.3
20260905192040 23 0 0.0 1.6 0.30 0.30 0.30 94 1018.3
20260905191603 23 0 0.0 1.6 0.30 0.30 0.30 93 1018.5
20260905191042 24 0 0.0 1.6 0.30 0.30 0.30 92 1018.7
20260905190543 24 0 0.0 1.6 0.30 0.30 0.30 93 1018.6
20260905190105 24 0 0.0 1.6 0.30 0.30 0.30 92 1018.8
20260905185542 25 0 0.0 4.8 0.30 0.30 0.30 92 1018.9
20260905185040 25 0 0.0 4.8 0.30 0.30 0.30 90 1019.0
20260905184558 25 0 1.6 4.8 0.30 0.30 0.30 89 1019.0
20260905184042 25 113 0.0 4.8 0.30 0.30 0.30 87 1018.9
20260905183541 26 0 0.0 8.0 0.30 0.30 0.30 84 1018.9
20260905183115 27 0 1.6 11.3 0.30 0.30 0.30 83 1018.8
20260905182542 28 36 3.2 6.4 0.08 0.08 0.08 78 1018.9
20260905182041 30 0 1.6 8.0 0.00 0.00 0.00 76 1018.9
20260905181559 30 338 3.2 8.0 0.00 0.00 0.00 72 1018.9
20260905181041 30 0 1.6 6.4 0.00 0.00 0.00 68 1018.9
20260905180541 30 90 0.0 3.2 0.00 0.00 0.00 76 1019.0
20260905180108 30 0 0.0 9.7 0.00 0.00 0.00 72 1019.1
20260905175547 30 325 0.0 9.7 0.00 0.00 0.00 75 1019.1
20260905175043 30 5 1.6 8.0 0.00 0.00 0.00 75 1019.0
20260905174559 30 22 1.6 8.0 0.00 0.00 0.00 72 1019.0
20260905174044 30 0 0.0 3.2 0.00 0.00 0.00 73 1019.0
20260905173542 30 0 0.0 3.2 0.00 0.00 0.00 72 1019.2
20260905173055 31 188 0.0 9.7 0.00 0.00 0.00 68 1019.2
20260905172543 31 40 0.0 9.7 0.00 0.00 0.00 67 1019.2
20260905172041 31 12 3.2 9.7 0.00 0.00 0.00 65 1019.1
20260905171557 31 318 0.0 6.4 0.00 0.00 0.00 65 1019.1
20260905171041 32 101 1.6 6.4 0.00 0.00 0.00 64 1019.2
20260905170538 31 99 1.6 4.8 0.00 0.00 0.00 66 1019.3
20260905170100 31 0 0.0 4.8 0.00 0.00 0.00 69 1019.4
20260905165538 31 57 0.0 4.8 0.00 0.00 0.00 70 1019.4
20260905165038 31 94 1.6 8.0 0.00 0.00 0.00 68 1019.6
20260905164559 31 290 1.6 8.0 0.00 0.00 0.00 68 1019.7
20260905164037 31 258 3.2 6.4 0.00 0.00 0.00 68 1019.7
20260905163541 31 47 1.6 8.0 0.00 0.00 0.00 68 1019.7
20260905163108 31 0 1.6 9.7 0.00 0.00 0.00 68 1019.6
20260905162537 31 216 1.6 9.7 0.00 0.00 0.00 67 1019.7
20260905162038 31 33 0.0 6.4 0.00 0.00 0.00 71 1019.8
20260905161557 31 28 1.6 9.7 0.00 0.00 0.00 65 1019.9
20260905161038 31 49 3.2 9.7 0.00 0.00 0.00 67 1019.9
20260905160538 31 20 1.6 6.4 0.00 0.00 0.00 67 1019.8
20260905160059 31 334 0.0 8.0 0.00 0.00 0.00 69 1019.9
20260905155538 31 76 3.2 8.0 0.00 0.00 0.00 67 1019.9
20260905155040 31 71 0.0 6.4 0.00 0.00 0.00 71 1019.8
20260905154601 31 0 1.6 6.4 0.00 0.00 0.00 68 1019.9
20260905154040 30 111 0.0 4.8 0.00 0.00 0.00 68 1019.8
20260905153538 30 0 1.6 4.8 0.00 0.00 0.00 73 1019.8
20260905153111 30 67 1.6 4.8 0.00 0.00 0.00 70 1019.9
20260905152540 30 0 0.0 4.8 0.00 0.00 0.00 73 1020.0
20260905152041 29 315 0.0 6.4 0.00 0.00 0.00 77 1020.0
20260905151613 28 0 1.6 6.4 0.00 0.00 0.00 76 1020.1
20260905151040 28 0 0.0 0.0 0.00 0.00 0.00 80 1020.1
20260905150539 28 0 0.0 0.0 0.00 0.00 0.00 81 1020.2
20260905150100 27 0 0.0 0.0 0.00 0.00 0.00 85 1020.1
20260905145540 27 0 0.0 0.0 0.00 0.00 0.00 86 1020.1
20260905145040 26 0 0.0 0.0 0.00 0.00 0.00 89 1020.2
20260905144559 26 0 0.0 0.0 0.00 0.00 0.00 89 1020.1
20260905144039 26 0 0.0 0.0 0.00 0.00 0.00 91 1020.2
20260905143540 25 0 0.0 0.0 0.00 0.00 0.00 92 1020.1
20260905143100 25 0 0.0 0.0 0.00 0.00 0.00 93 1020.2
20260905142541 25 0 0.0 0.0 0.00 0.00 0.00 93 1020.1
20260905142039 25 0 0.0 0.0 0.00 0.00 0.00 93 1020.2
20260905141604 25 0 0.0 0.0 0.00 0.00 0.00 95 1020.2
20260905141040 24 0 0.0 0.0 0.00 0.00 0.00 95 1020.2
20260905140540 24 0 0.0 0.0 0.00 0.00 0.00 95 1020.1
20260905140108 23 0 0.0 0.0 0.00 0.00 0.00 96 1020.2
20260905135540 23 0 0.0 0.0 0.00 0.00 0.00 97 1020.2
20260905135040 23 0 0.0 0.0 0.00 0.00 0.00 97 1020.3
20260905134603 23 0 0.0 0.0 0.00 0.00 0.00 97 1020.3
20260905134040 22 0 0.0 0.0 0.00 0.00 0.00 98 1020.3
20260905133541 22 0 0.0 0.0 0.00 0.00 0.00 98 1020.2
20260905133059 22 0 0.0 0.0 0.00 0.00 0.00 98 1020.3
20260905132539 22 0 0.0 0.0 0.00 0.00 0.00 98 1020.3
20260905132045 22 0 0.0 0.0 0.00 0.00 0.00 98 1020.5
20260905131613 21 0 0.0 0.0 0.00 0.00 0.00 97 1020.4
20260905131040 21 0 0.0 0.0 0.00 0.00 0.00 97 1020.4
20260905130543 21 0 0.0 0.0 0.00 0.00 0.00 97 1020.5
20260905130100 21 0 0.0 0.0 0.00 0.00 0.00 97 1020.5
20260905125537 21 0 0.0 0.0 0.00 0.00 0.00 97 1020.6
20260905125038 21 0 0.0 0.0 0.00 0.00 0.00 97 1020.6
20260905124606 21 0 0.0 0.0 0.00 0.00 0.00 98 1020.6
20260905124038 21 0 0.0 0.0 0.00 0.00 0.00 98 1020.5
20260905123538 21 0 0.0 0.0 0.00 0.00 0.00 98 1020.4
20260905123100 20 0 0.0 0.0 0.00 0.00 0.00 98 1020.5
20260905122541 20 0 0.0 0.0 0.00 0.00 0.00 98 1020.4
20260905122038 20 0 0.0 0.0 0.00 0.00 0.00 98 1020.3
20260905121607 20 0 0.0 0.0 0.00 0.00 0.00 98 1020.4
20260905121039 20 0 0.0 0.0 0.00 0.00 0.00 97 1020.2
20260905120539 20 0 0.0 0.0 0.00 0.00 0.00 97 1020.2
20260905120104 20 0 0.0 0.0 0.00 0.00 0.00 97 1020.1
20260905115539 20 0 0.0 0.0 0.00 0.00 0.00 97 1020.0
20260905115039 20 0 0.0 0.0 0.00 0.00 0.00 97 1020.0
20260905114600 20 0 0.0 0.0 0.00 0.00 0.00 97 1020.1
20260905114042 20 0 0.0 0.0 0.00 0.00 0.00 97 1019.9
20260905113538 20 0 0.0 0.0 0.00 0.00 0.00 97 1019.9
20260905113100 20 0 0.0 0.0 0.00 0.00 0.00 97 1019.8
20260905112541 20 0 0.0 0.0 0.00 0.00 0.00 97 1019.8
20260905112038 19 0 0.0 0.0 0.00 0.00 0.00 97 1019.7
20260905111600 19 0 0.0 0.0 0.00 0.00 0.00 97 1019.7
20260905111041 19 0 0.0 0.0 0.00 0.00 0.00 96 1019.5
20260905110538 19 0 0.0 0.0 0.00 0.00 0.00 96 1019.5
20260905110059 19 0 0.0 0.0 0.00 0.00 0.00 96 1019.7
20260905105538 19 0 0.0 0.0 0.00 0.00 0.00 96 1019.6
20260905105038 19 0 0.0 0.0 0.00 0.00 0.00 96 1019.4
20260905104558 19 0 0.0 0.0 0.00 0.00 0.00 96 1019.4
20260905104038 19 0 0.0 0.0 0.00 0.00 0.00 96 1019.4
20260905103542 19 0 0.0 0.0 0.00 0.00 0.00 96 1019.4
20260905103058 19 0 0.0 0.0 0.00 0.00 0.00 96 1019.3
20260905102538 19 0 0.0 0.0 0.00 0.00 0.00 96 1019.3
20260905102040 19 0 0.0 0.0 0.00 0.00 0.00 96 1019.3
20260905101600 20 0 0.0 0.0 0.00 0.00 0.00 96 1019.3
20260905101037 20 0 0.0 0.0 0.00 0.00 0.00 96 1019.2
20260905100539 20 0 0.0 0.0 0.00 0.00 0.00 96 1019.2
20260905100120 20 0 0.0 0.0 0.00 0.00 0.00 96 1019.2
20260905095540 20 0 0.0 0.0 0.00 0.00 0.00 96 1019.1
20260905095038 20 0 0.0 0.0 0.00 0.00 0.00 96 1019.2
20260905094552 20 0 0.0 0.0 0.00 0.00 0.00 96 1019.2
20260905094038 20 0 0.0 0.0 0.00 0.00 0.00 96 1019.2
20260905093542 20 0 0.0 0.0 0.00 0.00 0.00 96 1019.1
20260905093059 20 0 0.0 0.0 0.00 0.00 0.00 96 1018.9
20260905092540 20 0 0.0 0.0 0.00 0.00 0.00 96 1018.9
20260905092038 20 0 0.0 0.0 0.00 0.00 0.00 96 1018.9
20260905091559 20 0 0.0 0.0 0.00 0.00 0.00 96 1018.7
20260905091037 20 0 0.0 0.0 0.00 0.00 0.00 96 1018.7
20260905090537 20 0 0.0 0.0 0.00 0.00 0.00 96 1018.9
20260905090135 20 0 0.0 0.0 0.00 0.00 0.00 96 1018.9
20260905085541 20 0 0.0 0.0 0.00 0.00 0.00 96 1019.0
20260905085042 20 0 0.0 0.0 0.00 0.00 0.00 96 1019.1
20260905084555 20 0 0.0 0.0 0.00 0.00 0.00 96 1019.0
20260905084044 20 0 0.0 0.0 0.00 0.00 0.00 96 1019.1
20260905083538 20 0 0.0 0.0 0.00 0.00 0.00 97 1019.1
20260905083100 20 0 0.0 0.0 0.00 0.00 0.00 97 1019.1
20260905082538 20 0 0.0 0.0 0.00 0.00 0.00 96 1019.2
20260905082038 20 0 0.0 0.0 0.00 0.00 0.00 96 1019.3
20260905081600 20 0 0.0 0.0 0.00 0.00 0.00 96 1019.3
20260905081037 20 0 0.0 0.0 0.00 0.00 0.00 96 1019.2
20260905080544 20 0 0.0 0.0 0.00 0.00 0.00 96 1019.3
20260905080059 20 0 0.0 0.0 0.00 0.00 0.00 96 1019.4
20260905075540 20 0 0.0 0.0 0.00 0.00 0.00 96 1019.3
20260905075040 20 0 0.0 0.0 0.00 0.00 0.00 96 1019.4
20260905074605 20 0 0.0 0.0 0.00 0.00 0.00 96 1019.5
20260905074038 20 0 0.0 0.0 0.00 0.00 0.00 96 1019.5
20260905073542 20 0 0.0 0.0 0.00 0.00 0.00 96 1019.5
20260905073105 20 0 0.0 0.0 0.00 0.00 0.00 96 1019.6
20260905072542 20 0 0.0 0.0 0.00 0.00 0.00 95 1019.5
20260905072041 20 0 0.0 0.0 0.00 0.00 0.00 96 1019.4
20260905071555 20 0 0.0 0.0 0.00 0.00 0.00 96 1019.6
20260905071045 21 0 0.0 0.0 0.00 0.00 0.00 96 1019.6
20260905070541 21 0 0.0 0.0 0.00 0.00 0.00 96 1019.4
20260905070101 21 0 0.0 0.0 0.00 0.00 0.00 96 1019.7
20260905065543 21 0 0.0 0.0 0.00 0.00 0.00 96 1019.6
20260905065042 21 0 0.0 0.0 0.00 0.00 0.00 96 1019.6
20260905064557 21 0 0.0 0.0 0.00 0.00 0.00 96 1019.6
20260905064042 21 0 0.0 0.0 0.00 0.00 0.00 96 1019.6
20260905063546 21 0 0.0 0.0 0.00 0.00 0.00 96 1019.7
20260905063104 21 0 0.0 0.0 0.00 0.00 0.00 96 1019.7
20260905062541 21 0 0.0 0.0 0.00 0.00 0.00 96 1019.8
20260905062043 21 0 0.0 0.0 0.00 0.00 0.00 95 1019.8
20260905061556 21 0 0.0 0.0 0.00 0.00 0.00 95 1019.7
20260905061041 21 0 0.0 0.0 0.00 0.00 0.00 95 1019.7
20260905060541 21 0 0.0 0.0 0.00 0.00 0.00 96 1019.8
20260905055545 21 0 0.0 0.0 0.00 0.00 0.00 96 1020.0
20260905055042 21 0 0.0 0.0 0.00 0.00 0.00 96 1019.9
20260905054555 21 0 0.0 0.0 0.00 0.00 0.00 95 1019.9
20260905054041 21 0 0.0 0.0 0.00 0.00 0.00 95 1019.9
20260905053542 21 0 0.0 0.0 0.00 0.00 0.00 95 1019.9
20260905053057 21 0 0.0 0.0 0.00 0.00 0.00 95 1019.9
20260905052542 21 0 0.0 0.0 0.00 0.00 0.00 95 1019.9
20260905052042 21 0 0.0 0.0 0.00 0.00 0.00 95 1019.9
20260905051600 21 0 0.0 0.0 0.00 0.00 0.00 95 1019.9
20260905051041 21 0 0.0 0.0 0.00 0.00 0.00 95 1020.0
20260905050542 21 0 0.0 0.0 0.00 0.00 0.00 95 1019.9
20260905050106 22 0 0.0 0.0 0.00 0.00 0.00 95 1020.0
20260905045541 22 0 0.0 0.0 0.00 0.00 0.00 95 1020.0
20260905045042 22 0 0.0 0.0 0.00 0.00 0.00 95 1020.0
20260905044607 22 0 0.0 0.0 0.00 0.00 0.00 95 1019.9
20260905044041 22 0 0.0 0.0 0.00 0.00 0.00 95 1020.0
20260905043543 22 0 0.0 0.0 0.00 0.00 0.00 95 1020.0
20260905043056 22 0 0.0 0.0 0.00 0.00 0.00 94 1020.2
20260905042542 22 0 0.0 0.0 0.00 0.00 0.00 94 1020.0
20260905042038 22 0 0.0 0.0 0.00 0.00 0.00 94 1020.0
20260905041601 22 0 0.0 0.0 0.00 0.00 0.00 94 1019.9
20260905041038 22 0 0.0 0.0 0.00 0.00 0.00 94 1019.9
20260905040538 22 0 0.0 0.0 0.00 0.00 0.00 94 1019.9